Погода в Нижнем Одесе

Россия / Республика Коми     63°38′20″N   54°50′45″E
темп.,
°C
ветер,
м/с
пор.,
м/с
влажн.,
%
обл.,
%
осадки,
мм/ч
давл.,
гПа
погр.,
м
18 апреля, вс
вс1800:00−5ссз51185100 0.0 1025778
03:00−5с51187100 0.1 1029681
06:00−5с498042 0.1 1031733
09:00−3с46583 0.1 1034814
12:00−1с45475 0.0 10361226
15:00−1с46455 0.0 10371409
18:00−3с36605 0.0 1037378
21:00−6с26815 0.0 1038169
19 апреля, пн
пн1900:00−6ссв15865 0.0 1039176
03:00−7с12848 0.0 1039111
06:00−5зсз136815 0.0 1039421
09:00−1зсз23555 0.0 1038993
12:00+2з34448 0.0 10361297
15:00+3з46415 0.0 10341340
18:00+1зюз266211 0.0 1033125
21:00−1з31170100 0.0 1033254
20 апреля, вт
вт2000:00−1з3117565 0.0 1032266
03:00−1з31076100 0.0 1031278
06:00+1з3116851 0.0 1031391
09:00+5зсз475543 0.0 1030850
12:00+7зсз46528 0.0 10301265
15:00+8сз365722 0.0 10291366
18:00+4ссв258039 0.0 1030135
21:000всв119527 0.0 103110
21 апреля, ср
ср2100:00−1юв119647 0.0 103210
03:00+1юв128777 0.0 103245
06:00+3ю12795 0.0 1032131
09:00+6ю23655 0.0 1031624
12:00+8ю23577 0.0 10301093
15:00+10ююв34505 0.0 10291129
18:00+8ююв37615 0.0 1028219
21:00+6ююв31173100 0.0 1027309
22 апреля, чт
чт2200:00+4ююв41278100 0.0 1026326
03:00+3ююв41378100 0.0 1024383
06:00+5ююв51569100 0.0 1023607
09:00+8ю61452100 0.0 10211057
12:00+10ю6144988 0.0 10211469
15:00+7ююз61272100 0.0 10221180
18:00+6ююз61275100 0.1 10221397
21:00+5ююз51180100 0.1 10231090